Find Starlink 30456

NORAD ID: 57943 Int'l Des: 2023-148 Owner: SPXS Country: US Constellation: starlink operational
LEOCIRCULAR

現在のビュー

3D地球を読み込み中...

About Starlink 30456

Starlink 30456 (NORAD 57943) is a starlink constellation satellite (v2 mini) launched Sep 25, 2023 by SPXS of US. It operates in LEO, CIRCULAR orbit with a mass of 730.00 kg.

Starlink 30456について

説明を読み込み中...

次回通過

Passes for default location (London). Set your location on the main map for personalized predictions.

高度履歴

Loading altitude history...

軌道要素

1 57943U 23148J 26175.89744102 -.00000233 00000-0 42712-5 0 9992
2 57943 53.1606 246.5062 0001258 100.4957 259.6185 15.30192455154830
Epoch: Jun 24, 2026 • Age: 19 hours

現在のステータス

高度 475.8 km
速度 7.63 km/s
衛星直下点 23.83°N, 101.02°E
打ち上げ日 Sep 25, 2023
運用期間 2.7 years
タイプ internet

技術仕様

分類 Payload
質量 730.00 kg
乾燥質量 700.00 kg
総質量 730.00 kg
長さ 0.30 m
直径 4.10 m
スパン 29.00 m
形状 Box + pan
製造者 SPXS
バスタイプ Starlink V2M
フェーズステータス In Orbit
所有者/国 SPXS/US

Most Searched